Regional Weather Roundup
Issued by NWS

Home | Current Version | Previous Version | Text Only | Print | Product List | Glossary On
Versions: 1 2 3 4 5 6 7 8 9 10 11 12 13 14 15 16 17 18 19 20 21 22 23 24 25 26 27 28
000
ASUS45 KBOU 281007
RWRCO

WEATHER ROUNDUP FOR COLORADO
NATIONAL WEATHER SERVICE DENVER/BOULDER CO
400 AM MDT SAT MAY 28 2016

NOTE: "FAIR" INDICATES FEW OR NO CLOUDS BELOW 12000 FEET WITH NO
SIGNIFICANT WEATHER AND/OR OBSTRUCTIONS TO VISIBILITY.

COZ001>005-013-030-031-281100-
...NORTHWEST COLORADO...

CITY           SKY/WX    TMP DP  RH WIND       PRES   REMARKS
CRAIG          FAIR      41  37  86 CALM      30.06S
HAYDEN         MOCLDY    39  36  87 E10       30.06S
MEEKER         FAIR      36  33  89 NE3       30.07S
MOUNT WERNER   NOT AVBL
STEAMBOAT SPGS FAIR      37  35  95 CALM      30.08S
WALDEN         CLOUDY    34  32  93 CALM      30.11S
$$

COZ006>008-011-281100-
...WEST CENTRAL VALLEYS...

CITY           SKY/WX    TMP DP  RH WIND       PRES   REMARKS
GRAND JUNCTION FAIR      44  42  93 E5        30.01R
MONTROSE       FAIR      44  33  65 SE9       30.07R
EAGLE          FAIR      34  34 100 E3        30.13S
RIFLE          FAIR      39  33  79 E5        30.06R
DELTA          FAIR      47  38  72 NE7       30.05R
NUCLA          FAIR      45  32  61 E5        30.08R
$$

COZ017>023-064>068-281100-
...SOUTHWEST COLORADO...

CITY           SKY/WX    TMP DP  RH WIND       PRES   REMARKS
DURANGO        FAIR      35  30  82 CALM      30.08R
CORTEZ         FAIR      38  31  76 E7        30.05S
PAGOSA SPRINGS FAIR      32  32  99 CALM      30.12S
TELLURIDE      FAIR      36  31  83 SE7       30.18S
WOLF CREEK PAS FAIR      30  21  69 W12       30.28S WCI  21
$$

COZ009-010-012-014-032>034-037-058>063-281100-
...CENTRAL COLORADO...

CITY           SKY/WX    TMP DP  RH WIND       PRES   REMARKS
ASPEN          FAIR      34  29  82 S3        30.11R
BUENA VISTA    FAIR      34  29  82 CALM      30.11R
COPPER MTN     NOT AVBL
BERTHOUD PASS  CLOUDY    23  14  68 N29G37    30.20F WCI   6
COTTONWOOD PAS FAIR      37  27  65 NW5       30.15R
GUNNISON       FAIR      34  30  86 CALM      30.16S
KREMMLING      FAIR      34  32  93 CALM      30.13R
LEADVILLE      FAIR      24  22  91 E5        30.15S WCI  18
MONARCH PASS   FOG       27  27 100 W25       30.31S VSB<1/4 WCI  11
SALIDA         FAIR      38  32  81 NW5       30.17S
SUNLIGHT       FAIR      32  30  93 CALM      30.23S
WILKERSON PASS FAIR      32  25  74 NW10G28   30.19S WCI  24
$$

COZ069>075-281100-
...SAN LUIS VALLEY/SANGRE DE CRISTO MOUNTAINS...

CITY           SKY/WX    TMP DP  RH WIND       PRES   REMARKS
ALAMOSA        FAIR      34  33  96 CALM      30.10S
LA VETA PASS   FAIR      32  30  93 S12G20    30.15R WCI  23
SAGUACHE       FAIR      32  30  93 N5        30.13R WCI  27
$$

COZ035-036-038>040-281100-
...NORTHERN COLORADO FRONT RANGE...

CITY           SKY/WX    TMP DP  RH WIND       PRES   REMARKS
DENVER INTL AP FAIR      45  38  76 SW12      29.96S
DMNS CITY PARK   N/A     46  38  76 SE8       29.97S
AURORA         PTCLDY    43  39  87 S8        29.98R
FRONT RANGE AP NOT AVBL
ERIE MUNI ARPT FAIR      40  38  93 CALM      29.96S
BOULDER MUN AP FAIR      43  37  81 W5        29.96S
CENTENNIAL     FAIR      42  35  76 E3        29.98R
BROOMFIELD     FAIR      45  39  81 CALM      29.97S
FORT COLLINS   FAIR      45  39  81 CALM      29.96S
LONGMONT       FAIR      40  37  89 NW5       29.98S
$$

COZ041-046-047-076>085-087-088-281100-
...PIKES PEAK/PALMER DIVIDE AND SOUTHERN FOOTHILLS...

CITY           SKY/WX    TMP DP  RH WIND       PRES   REMARKS
COLO. SPRINGS  FAIR      43  34  70 N3        30.00R
A. F. ACADEMY  FAIR      41  32  70 N9        30.00R
SCHRIEVER AFB  NOT AVBL
ELLICOTT       FAIR     N/A N/A N/A CALM      29.98R
FALCON         FAIR      42  32  68 NW7       30.02S
FORT CARSON    FAIR      41  36  81 NW9       29.97R
LIMON          FAIR      36  36 100 W3        29.97S
MONUMENT HILL  FAIR      36  32  87 W8        30.03S
TRINIDAD       FAIR      42  38  85 W12       30.00R
$$

COZ042>045-048>051-090-091-281100-
...NORTHEAST COLORADO...

CITY           SKY/WX    TMP DP  RH WIND       PRES   REMARKS
GREELEY ARPT   FAIR      43  39  87 CALM      29.96S
AKRON          FAIR      42  39  89 W9        29.93S
BURLINGTON     FAIR      45  41  86 NW10      29.92S
WRAY           FAIR      46  46 100 NW7       29.90S
STERLING       FAIR      41  41 100 CALM      29.91S
HOLYOKE        FAIR      50  45  81 NW7       29.90S
FORT MORGAN    FAIR      40  39  95 W3        29.94S
$$

COZ086-089-092>099-281100-
...SOUTHEAST COLORADO...

CITY           SKY/WX    TMP DP  RH WIND       PRES   REMARKS
PUEBLO         FAIR      47  42  83 VRB7      29.96R
LA JUNTA       FAIR      49  45  86 W12       29.95R
LAMAR          FAIR      42  41  96 SW6       29.93R
SPRINGFIELD      N/A     42  39  89 NW9       29.95R
$$




USA.gov is the U.S. government's official web portal to all federal, state and local government web resources and services.